TimeCDT,TemperatureF,Dew PointF,Humidity,Sea Level PressureIn,VisibilityMPH,Wind Direction,Wind SpeedMPH,Gust SpeedMPH,PrecipitationIn,Events,Conditions,WindDirDegrees,DateUTC
12:15 AM,39.2,19.2,45,30.33,10.0,NNW,4.6,-,N/A,,Clear,340,2012-10-06 05:15:00
12:35 AM,38.7,18.9,45,30.33,10.0,NNW,5.8,-,N/A,,Clear,340,2012-10-06 05:35:00
12:55 AM,36.5,19.2,50,30.33,10.0,North,4.6,-,N/A,,Clear,350,2012-10-06 05:55:00
1:15 AM,34.3,19.4,54,30.34,10.0,NNW,3.5,-,N/A,,Clear,330,2012-10-06 06:15:00
1:35 AM,32.0,18.5,58,30.34,10.0,Calm,Calm,-,N/A,,Clear,0,2012-10-06 06:35:00
1:55 AM,31.1,18.9,61,30.34,10.0,NW,3.5,-,N/A,,Clear,320,2012-10-06 06:55:00
2:15 AM,30.6,18.9,62,30.34,10.0,NNW,4.6,-,N/A,,Clear,330,2012-10-06 07:15:00
2:35 AM,30.0,19.0,64,30.34,10.0,NNW,3.5,-,N/A,,Clear,340,2012-10-06 07:35:00
2:55 AM,28.0,18.5,67,30.34,10.0,NNW,3.5,-,N/A,,Clear,340,2012-10-06 07:55:00
3:15 AM,25.9,17.8,71,30.34,10.0,Calm,Calm,-,N/A,,Clear,0,2012-10-06 08:15:00
3:35 AM,25.9,18.3,73,30.34,10.0,NW,4.6,-,N/A,,Clear,310,2012-10-06 08:35:00
3:55 AM,26.2,18.3,72,30.34,10.0,NNW,4.6,-,N/A,,Clear,330,2012-10-06 08:55:00
4:15 AM,25.3,18.1,74,30.34,10.0,NW,4.6,-,N/A,,Clear,320,2012-10-06 09:15:00
4:35 AM,23.7,17.4,77,30.34,10.0,NW,5.8,-,N/A,,Clear,320,2012-10-06 09:35:00
4:55 AM,28.2,19.4,70,30.34,10.0,NNW,8.1,-,N/A,,Clear,340,2012-10-06 09:55:00
5:15 AM,28.4,18.9,67,30.34,10.0,NNW,8.1,-,N/A,,Clear,340,2012-10-06 10:15:00
5:35 AM,28.6,18.7,66,30.33,10.0,North,10.4,-,N/A,,Clear,350,2012-10-06 10:35:00
5:55 AM,27.7,18.0,67,30.34,10.0,WNW,5.8,-,N/A,,Clear,300,2012-10-06 10:55:00
6:15 AM,23.0,17.1,78,30.34,10.0,WNW,4.6,-,N/A,,Clear,300,2012-10-06 11:15:00
6:35 AM,21.7,16.7,81,30.34,10.0,NW,4.6,-,N/A,,Clear,310,2012-10-06 11:35:00
6:55 AM,21.7,16.5,80,30.35,10.0,NW,5.8,-,N/A,,Clear,320,2012-10-06 11:55:00
7:15 AM,21.7,16.3,80,30.35,10.0,NNW,3.5,-,N/A,,Clear,330,2012-10-06 12:15:00
7:35 AM,22.8,16.9,78,30.35,10.0,NW,3.5,-,N/A,,Clear,310,2012-10-06 12:35:00
7:55 AM,22.6,17.2,80,30.35,10.0,NW,6.9,-,N/A,,Clear,320,2012-10-06 12:55:00
8:15 AM,24.6,18.3,77,30.34,10.0,NW,5.8,-,N/A,,Clear,320,2012-10-06 13:15:00
8:35 AM,29.3,19.2,66,30.35,10.0,NNW,6.9,-,N/A,,Clear,330,2012-10-06 13:35:00
8:55 AM,31.6,20.1,62,30.37,10.0,NW,8.1,-,N/A,,Clear,310,2012-10-06 13:55:00
9:15 AM,34.7,21.0,57,30.37,10.0,NNW,13.8,-,N/A,,Clear,340,2012-10-06 14:15:00
9:35 AM,35.4,21.2,56,30.37,10.0,NNW,12.7,18.4,N/A,,Clear,340,2012-10-06 14:35:00
9:55 AM,37.6,21.9,53,30.38,10.0,North,13.8,19.6,N/A,,Clear,360,2012-10-06 14:55:00
10:15 AM,38.8,21.7,50,30.39,10.0,NNW,11.5,19.6,N/A,,Clear,340,2012-10-06 15:15:00
10:35 AM,39.6,21.6,49,30.39,10.0,North,11.5,-,N/A,,Clear,350,2012-10-06 15:35:00
10:55 AM,40.1,21.2,47,30.39,10.0,North,11.5,-,N/A,,Clear,360,2012-10-06 15:55:00
11:15 AM,40.8,21.0,45,30.39,10.0,North,9.2,-,N/A,,Clear,350,2012-10-06 16:15:00
11:35 AM,42.3,20.5,42,30.38,10.0,North,15.0,20.7,N/A,,Clear,360,2012-10-06 16:35:00
11:55 AM,42.6,20.3,41,30.39,10.0,NNW,12.7,18.4,N/A,,Clear,330,2012-10-06 16:55:00
12:15 PM,42.8,19.6,40,30.38,10.0,NW,11.5,20.7,N/A,,Clear,320,2012-10-06 17:15:00
12:35 PM,43.3,19.6,39,30.37,10.0,North,11.5,16.1,N/A,,Clear,360,2012-10-06 17:35:00
12:55 PM,43.7,19.6,38,30.37,10.0,North,12.7,18.4,N/A,,Clear,350,2012-10-06 17:55:00
1:15 PM,43.9,20.3,39,30.37,10.0,NW,10.4,18.4,N/A,,Clear,320,2012-10-06 18:15:00
1:35 PM,44.1,20.5,39,30.36,10.0,North,9.2,-,N/A,,Clear,350,2012-10-06 18:35:00
1:55 PM,45.0,20.3,38,30.35,10.0,NNW,10.4,16.1,N/A,,Clear,340,2012-10-06 18:55:00
2:15 PM,44.4,20.1,38,30.34,10.0,NNW,9.2,16.1,N/A,,Clear,340,2012-10-06 19:15:00
2:35 PM,44.2,20.3,39,30.34,10.0,NW,10.4,17.3,N/A,,Clear,320,2012-10-06 19:35:00
2:55 PM,44.6,20.5,38,30.32,10.0,NW,9.2,-,N/A,,Clear,320,2012-10-06 19:55:00
3:15 PM,45.0,20.5,38,30.32,10.0,NW,11.5,17.3,N/A,,Clear,320,2012-10-06 20:15:00
3:35 PM,45.3,21.0,38,30.32,10.0,NNW,10.4,-,N/A,,Clear,330,2012-10-06 20:35:00
3:55 PM,44.8,20.8,39,30.31,10.0,NW,11.5,-,N/A,,Clear,320,2012-10-06 20:55:00
4:15 PM,45.5,21.0,38,30.31,10.0,NNW,10.4,17.3,N/A,,Clear,330,2012-10-06 21:15:00
4:35 PM,45.9,20.3,36,30.31,10.0,North,11.5,-,N/A,,Clear,350,2012-10-06 21:35:00
4:55 PM,45.0,20.5,38,30.31,10.0,NW,9.2,-,N/A,,Clear,310,2012-10-06 21:55:00
5:15 PM,45.5,20.7,37,30.31,10.0,NW,6.9,-,N/A,,Clear,320,2012-10-06 22:15:00
5:35 PM,46.0,20.3,36,30.31,10.0,NNW,8.1,-,N/A,,Clear,330,2012-10-06 22:35:00
6:15 PM,45.5,19.4,35,30.30,10.0,NNW,5.8,-,N/A,,Clear,330,2012-10-06 23:15:00
6:35 PM,45.3,20.3,37,30.30,10.0,North,6.9,-,N/A,,Clear,350,2012-10-06 23:35:00
6:55 PM,43.5,20.3,40,30.30,10.0,North,5.8,-,N/A,,Clear,360,2012-10-06 23:55:00
7:15 PM,40.6,20.3,44,30.30,10.0,North,3.5,-,N/A,,Clear,10,2012-10-07 00:15:00
7:35 PM,37.4,19.9,49,30.31,10.0,North,4.6,-,N/A,,Clear,10,2012-10-07 00:35:00
7:55 PM,36.0,19.8,52,30.31,10.0,Calm,Calm,-,N/A,,Clear,0,2012-10-07 00:55:00
8:15 PM,34.7,19.8,54,30.31,10.0,Calm,Calm,-,N/A,,Clear,0,2012-10-07 01:15:00
8:35 PM,32.5,19.4,58,30.32,10.0,Calm,Calm,-,N/A,,Clear,0,2012-10-07 01:35:00
8:55 PM,30.9,19.0,61,30.32,10.0,Calm,Calm,-,N/A,,Clear,0,2012-10-07 01:55:00
9:15 PM,30.2,18.7,62,30.32,10.0,Calm,Calm,-,N/A,,Clear,0,2012-10-07 02:15:00
9:35 PM,29.5,18.5,64,30.32,10.0,Calm,Calm,-,N/A,,Clear,0,2012-10-07 02:35:00
9:55 PM,28.8,18.7,66,30.31,10.0,Calm,Calm,-,N/A,,Clear,0,2012-10-07 02:55:00
10:15 PM,27.0,18.5,70,30.32,10.0,Calm,Calm,-,N/A,,Clear,0,2012-10-07 03:15:00
10:35 PM,26.1,16.7,68,30.31,10.0,Calm,Calm,-,N/A,,Clear,0,2012-10-07 03:35:00
10:55 PM,25.3,18.1,74,30.31,10.0,Calm,Calm,-,N/A,,Clear,0,2012-10-07 03:55:00
11:15 PM,24.6,17.4,74,30.31,10.0,Calm,Calm,-,N/A,,Clear,0,2012-10-07 04:15:00
11:35 PM,23.2,16.7,76,30.31,10.0,Calm,Calm,-,N/A,,Clear,0,2012-10-07 04:35:00
11:55 PM,22.3,15.4,75,30.31,10.0,Calm,Calm,-,N/A,,Clear,0,2012-10-07 04:55:00